Wetbulb
53.86 53.82 53.56 53.27 53.01 52.87 52.95 52.65 52.76 52.76 52.23 52.48 52.92 53.13 52.52 52.33 51.16 48.99 43.32 47.91 50.66 55.45 51.84 49.21 52.84 49.94 50.48 48.80 49.88 52.33 42.79 39.24 42.16 41.05 41.37 44.59 43.40 46.83 47.77 47.93 47.00 48.86 50.13 54.01 59.88
53.21 53.07 53.16 52.89 52.62 52.53 52.60 52.42 52.60 52.43 52.31 52.94 52.64 52.69 52.08 51.83 45.17 41.70 49.61 53.09 53.57 53.18 45.12 43.14 43.13 47.74 44.95 45.26 46.98 46.45 40.73 40.85 46.80 47.77 44.22 43.96 43.95 45.36 44.55 44.79 44.73 47.27 51.61 56.14 62.40
52.69 52.55 52.46 52.51 52.36 52.11 52.18 52.08 52.75 52.47 52.74 53.01 52.73 52.22 51.42 49.88 40.08 37.75 50.46 52.35 52.47 50.07 45.56 44.42 44.89 43.90 41.58 44.40 44.84 44.44 40.17 45.23 46.65 48.26 49.29 45.24 43.89 46.30 44.72 43.18 45.63 45.52 48.84 56.61 61.31
52.36 52.24 51.94 51.84 51.74 51.46 51.51 52.14 52.09 51.82 53.36 52.73 51.68 52.14 51.55 42.82 28.15 40.18 48.98 49.02 51.16 47.84 43.78 41.97 41.31 38.05 38.57 38.43 42.77 39.26 42.73 45.81 46.99 48.76 47.17 45.93 47.35 43.64 45.77 46.16 48.58 48.54 50.04 56.49 59.36
52.16 51.95 51.58 51.21 50.85 50.74 50.91 51.66 50.81 50.84 52.80 52.31 52.15 51.49 44.51 35.76 34.48 43.14 47.07 45.86 43.62 42.37 40.34 38.64 36.61 35.56 35.00 38.47 40.41 38.95 40.93 43.50 46.17 46.42 46.15 47.49 46.83 45.64 45.87 48.42 48.59 49.27 50.96 55.81 58.25
51.54 51.18 50.99 50.61 50.36 49.80 50.16 50.18 50.38 51.05 49.98 48.58 47.99 47.92 39.91 30.73 41.50 42.40 42.46 41.91 40.54 39.34 37.44 38.62 36.67 37.89 33.99 35.20 36.46 40.70 42.06 41.63 43.08 44.50 46.04 43.15 45.64 47.04 47.81 49.77 48.32 46.68 49.08 54.19 57.56
50.98 50.64 50.37 50.15 49.63 49.17 49.33 48.97 49.27 49.65 48.43 48.67 47.17 45.49 38.78 33.10 41.72 42.02 41.95 40.24 40.23 38.98 35.59 38.66 39.67 36.42 37.22 33.75 37.84 37.73 35.46 37.54 40.05 41.31 40.95 45.83 41.39 43.85 48.49 49.33 47.03 46.68 48.83 52.49 55.41
50.37 50.31 49.78 49.68 48.92 48.92 48.68 48.49 48.33 48.61 46.37 47.93 45.71 43.37 33.01 40.74 42.85 40.56 41.24 38.63 40.14 40.21 38.94 39.66 39.98 36.79 35.83 37.87 35.32 32.68 34.23 31.00 38.05 40.92 41.19 40.90 36.38 44.73 48.74 47.03 46.10 46.76 47.83 51.49 55.70
49.95 49.61 49.20 49.10 48.96 48.55 47.49 48.06 46.32 47.31 44.31 44.45 39.79 38.94 30.00 42.25 36.74 39.63 39.91 35.46 37.26 39.07 40.47 40.30 39.07 35.46 35.69 29.90 28.21 31.81 26.20 30.34 33.27 41.44 40.57 39.83 36.78 43.99 48.10 47.07 46.59 47.56 47.85 48.56 53.01
49.98 49.03 48.44 47.53 48.37 48.04 46.46 46.94 45.17 44.78 42.17 40.26 38.89 32.58 34.56 31.43 36.51 38.06 39.50 37.99 34.82 36.38 36.34 35.96 34.75 30.35 31.02 28.06 18.83 25.67 26.80 30.82 32.01 38.03 40.17 37.96 37.94 42.57 47.17 47.33 47.06 48.08 48.80 49.25 50.79
49.93 48.51 47.62 47.06 47.19 47.28 43.50 43.67 39.10 37.76 37.19 31.49 31.47 31.30 32.79 36.47 38.81 35.96 37.40 35.67 35.69 33.84 26.89 31.86 27.55 22.91 25.65 28.16 28.08 27.58 26.20 27.22 32.97 37.54 37.23 37.56 38.08 39.93 44.95 44.64 46.62 47.65 48.11 49.61 50.86
48.87 48.30 47.13 46.05 45.19 45.46 42.84 37.19 34.83 36.50 31.24 34.60 33.99 33.91 35.57 36.25 30.49 33.29 37.12 29.81 29.86 25.17 29.14 27.01 22.46 26.90 28.53 28.53 27.78 26.96 24.84 26.62 30.92 34.39 33.91 36.19 36.55 41.22 41.84 45.04 46.71 47.58 48.31 48.84 51.40
48.99 48.72 46.56 45.19 43.24 40.25 38.20 34.27 40.65 38.90 31.60 31.20 32.95 32.33 32.79 34.29 29.18 29.78 32.94 30.37 27.13 25.27 25.34 23.11 24.79 28.61 26.49 25.66 24.64 26.09 25.49 26.54 27.70 33.47 34.46 32.18 33.09 37.66 42.34 44.35 46.68 48.02 49.40 50.03 51.10
48.58 46.94 45.50 43.25 39.66 37.32 35.22 37.52 41.30 39.69 27.98 26.41 29.25 31.82 33.06 33.13 28.12 34.71 34.48 29.70 27.48 22.85 24.69 24.06 27.66 26.35 25.31 22.05 25.87 23.05 30.65 29.94 28.95 27.55 24.40 33.84 26.59 34.92 39.37 40.89 43.88 46.06 47.73 48.95 50.70
49.81 46.53 43.51 42.92 38.07 34.73 35.59 38.19 41.18 36.67 16.80 27.48 27.98 36.24 33.56 28.77 28.89 29.67 35.20 30.10 22.77 22.92 24.76 21.35 23.86 23.89 21.43 23.21 26.63 24.75 29.75 31.11 30.59 28.42 28.19 29.16 26.98 34.16 39.00 37.32 40.40 44.00 47.13 48.62 49.93
49.64 46.51 43.21 39.35 38.70 37.11 37.55 38.56 36.95 26.41 13.47 21.70 28.14 26.38 26.03 28.50 27.88 29.74 29.67 31.86 29.29 23.21 25.21 23.45 28.47 26.79 24.31 26.81 27.64 26.77 27.08 30.42 31.43 29.62 20.76 26.43 26.82 27.59 32.41 33.42 35.48 42.52 46.40 47.85 49.17
48.34 46.50 41.07 38.54 34.29 38.19 36.54 35.06 26.66 17.56 26.13 22.05 21.33 24.83 24.08 23.06 24.45 24.77 23.19 22.34 17.84 14.70 16.25 20.95 23.75 26.14 26.96 22.69 25.12 23.14 27.26 20.70 18.64 19.22 18.59 28.71 25.83 23.67 27.10 28.96 29.01 31.68 36.58 42.14 47.56
45.97 41.30 40.38 39.13 38.98 37.58 37.26 30.89 17.22 18.32 19.29 25.07 23.47 22.95 20.86 22.74 22.21 22.81 21.83 19.44 22.39 20.03 16.71 13.87 14.63 22.03 25.76 23.65 18.63 21.34 22.39 19.95 14.03 16.60 20.81 28.52 23.66 21.92 27.14 30.10 31.43 33.10 37.44 41.41 43.56
40.96 40.60 39.41 39.02 38.15 39.47 34.54 20.05 17.70 16.77 22.23 20.55 22.52 18.70 20.51 22.64 20.22 21.60 21.13 19.75 20.99 21.81 14.32 13.95 15.82 25.54 25.69 25.14 23.49 20.75 20.74 22.75 19.89 22.74 22.40 21.03 23.22 26.27 26.57 26.47 28.70 28.75 31.68 32.53 40.28
38.92 37.58 36.67 37.54 37.83 37.79 28.99 19.68 18.91 24.13 24.04 22.68 16.40 18.34 14.50 18.22 18.06 18.96 19.42 23.40 20.12 23.41 24.82 19.90 13.86 23.53 24.49 26.73 25.45 21.04 23.38 19.70 22.71 17.18 15.30 16.67 16.18 16.37 20.31 23.02 26.24 26.32 27.28 29.33 32.15
37.68 35.58 37.01 36.91 39.32 32.52 22.61 21.33 22.83 26.52 25.41 20.71 18.50 16.58 17.58 15.93 17.10 16.61 17.81 22.60 22.83 21.94 25.21 21.62 16.18 18.95 22.66 18.73 17.61 18.37 16.82 18.08 18.23 20.54 17.68 16.78 13.15 22.97 21.80 24.05 24.41 26.85 27.25 28.07 30.08
35.95 32.51 37.72 37.53 30.15 27.59 23.21 22.63 25.75 24.55 26.32 23.46 22.71 19.89 17.32 17.59 16.19 16.22 16.76 19.99 24.86 24.35 19.41 23.06 17.71 14.82 15.83 22.68 24.89 22.47 18.26 17.86 17.33 14.68 16.34 16.77 13.96 25.17 24.93 25.67 26.58 26.87 28.37 28.19 29.60
33.40 31.89 37.86 37.41 25.92 24.74 24.25 23.49 24.62 23.53 23.50 22.50 20.56 21.74 21.48 17.23 13.82 14.31 19.30 24.58 24.50 23.00 20.45 22.03 17.37 14.67 15.64 19.27 23.00 18.52 19.66 19.64 20.28 20.59 13.21 13.78 13.92 24.84 24.83 25.32 26.76 26.87 28.24 28.32 28.35
34.27 30.92 31.96 30.75 28.01 24.99 21.99 22.03 21.86 25.68 23.82 23.73 22.12 22.63 19.71 16.57 18.71 15.12 17.27 22.02 23.91 23.01 26.23 23.23 17.80 14.54 11.78 13.22 18.35 15.15 17.18 18.22 18.17 15.37 14.47 13.68 15.47 18.46 20.99 22.34 24.81 26.43 28.25 28.72 28.12
32.44 27.94 26.76 27.06 26.64 24.28 23.18 21.34 21.15 20.94 23.37 23.39 21.15 20.43 17.96 12.41 14.67 15.10 18.36 19.40 22.52 22.59 20.05 17.06 14.18 14.11 17.02 18.07 18.40 17.41 16.07 16.59 14.46 15.79 13.27 14.70 15.56 17.90 20.50 22.83 24.83 26.76 27.92 27.98 28.10
32.58 30.44 26.91 26.39 23.91 23.50 22.78 21.22 20.65 22.01 20.93 20.58 18.71 21.36 16.44 13.91 17.56 13.15 13.72 14.39 15.81 19.56 17.39 17.08 14.49 13.44 13.19 17.65 18.04 15.76 17.49 17.70 16.32 15.61 16.32 16.66 16.83 21.84 23.13 25.21 24.42 25.71 26.24 26.41 26.88
32.86 31.40 31.62 24.55 23.80 23.93 25.36 23.31 22.28 22.58 24.51 24.45 22.35 19.73 12.99 16.96 21.26 22.34 22.42 21.82 20.17 16.99 15.95 14.60 12.27 11.79 12.78 15.67 15.86 14.21 14.37 15.79 16.79 17.36 15.95 13.80 17.68 21.12 20.72 22.40 23.65 25.10 26.19 25.95 26.55
MSLP
1021.14 1020.70 1020.26 1019.87 1019.48 1019.10 1018.74 1018.36 1017.96 1017.58 1017.29 1017.00 1016.73 1016.44 1016.21 1016.18 1015.89 1015.46 1015.43 1015.74 1015.41 1015.14 1014.95 1014.33 1013.49 1013.93 1013.84 1013.19 1013.01 1011.97 1010.09 1006.85 1005.76 1006.09 1006.48 1007.25 1007.77 1007.92 1007.81 1007.09 1008.05 1008.17 1007.69 1008.70 1009.35
1021.24 1020.77 1020.37 1019.95 1019.58 1019.19 1018.74 1018.34 1017.86 1017.43 1017.14 1016.88 1016.69 1016.41 1016.26 1016.21 1015.91 1015.67 1016.11 1015.67 1015.33 1014.76 1014.74 1014.56 1014.18 1013.81 1013.61 1012.97 1012.40 1010.63 1008.53 1005.49 1007.45 1006.96 1006.82 1007.26 1007.77 1007.48 1008.00 1007.52 1007.69 1008.17 1008.68 1009.38 1009.75
1021.34 1020.90 1020.42 1019.95 1019.59 1019.21 1018.78 1018.34 1017.86 1017.42 1017.10 1016.79 1016.59 1016.48 1016.35 1016.23 1015.93 1016.25 1016.18 1015.50 1014.98 1014.80 1014.69 1014.67 1014.47 1014.12 1013.39 1012.79 1011.55 1010.18 1007.22 1008.15 1007.67 1007.59 1007.17 1007.30 1007.45 1007.40 1007.13 1006.23 1006.70 1007.44 1007.70 1008.87 1009.35
1021.47 1020.99 1020.49 1020.02 1019.65 1019.30 1018.92 1018.49 1018.01 1017.64 1017.18 1016.77 1016.68 1016.61 1016.44 1015.95 1016.44 1016.59 1016.48 1016.08 1015.40 1015.06 1014.67 1014.56 1014.35 1014.49 1013.11 1012.17 1011.72 1010.67 1009.19 1009.13 1008.02 1007.57 1007.54 1007.06 1007.26 1007.16 1006.48 1006.04 1006.58 1006.91 1007.18 1008.21 1008.84
1021.53 1021.05 1020.59 1020.19 1019.80 1019.49 1019.09 1018.59 1018.13 1017.79 1017.46 1017.31 1017.08 1016.83 1016.53 1016.52 1017.20 1016.99 1016.60 1016.09 1015.63 1015.45 1014.84 1014.52 1014.38 1014.44 1013.78 1012.69 1011.77 1010.30 1009.85 1009.28 1008.68 1008.87 1008.54 1007.73 1006.36 1006.28 1005.90 1006.56 1006.78 1006.88 1007.21 1007.83 1008.33
1021.61 1021.17 1020.74 1020.36 1019.96 1019.66 1019.31 1018.83 1018.32 1017.93 1017.91 1017.55 1016.99 1016.81 1016.65 1016.89 1017.48 1016.97 1016.47 1015.75 1015.56 1015.36 1014.97 1014.55 1014.06 1014.05 1014.04 1013.69 1012.28 1010.65 1009.75 1009.64 1009.43 1008.97 1009.06 1008.37 1007.04 1006.24 1005.81 1006.38 1006.57 1007.18 1007.29 1007.46 1007.81
1021.77 1021.30 1020.82 1020.42 1019.97 1019.67 1019.46 1018.99 1018.41 1017.99 1018.04 1017.52 1016.87 1016.42 1016.72 1017.93 1017.25 1016.65 1015.93 1015.60 1015.40 1015.00 1014.25 1013.55 1013.46 1013.62 1013.40 1012.93 1012.97 1011.55 1010.46 1010.20 1009.62 1009.42 1009.46 1008.92 1007.30 1004.60 1006.05 1006.02 1006.31 1006.64 1006.95 1007.12 1007.25
1022.00 1021.44 1020.84 1020.37 1020.04 1019.78 1019.50 1019.19 1018.66 1018.27 1018.12 1017.65 1016.99 1016.68 1017.15 1017.69 1017.16 1016.31 1015.88 1014.70 1014.31 1013.87 1013.26 1012.73 1012.93 1013.25 1013.09 1012.73 1012.13 1011.89 1010.84 1009.68 1009.05 1008.53 1009.12 1009.67 1006.19 1006.19 1006.06 1006.08 1005.98 1006.17 1006.52 1006.95 1007.10
1022.15 1021.51 1020.92 1020.36 1019.94 1019.74 1019.39 1019.10 1018.72 1018.51 1018.19 1017.76 1017.40 1017.37 1017.86 1017.63 1016.53 1016.43 1016.18 1015.04 1013.81 1012.96 1012.53 1012.61 1012.67 1012.64 1012.64 1012.99 1012.26 1011.58 1010.45 1009.13 1008.49 1008.14 1008.26 1008.56 1007.18 1006.33 1006.06 1006.07 1005.70 1005.72 1006.04 1006.47 1006.88
1022.22 1021.67 1021.04 1020.50 1020.05 1019.66 1019.35 1019.16 1019.14 1018.64 1017.90 1017.68 1017.80 1017.94 1017.90 1018.10 1017.38 1016.59 1016.09 1014.93 1014.15 1013.19 1012.26 1012.26 1012.37 1012.32 1012.35 1012.58 1011.82 1010.89 1010.03 1008.69 1007.45 1007.82 1007.15 1007.06 1007.04 1006.95 1005.95 1005.82 1005.83 1005.61 1005.79 1006.07 1006.36
1022.30 1021.75 1021.23 1020.75 1020.46 1019.95 1019.49 1019.35 1019.41 1019.39 1019.31 1019.68 1020.09 1019.70 1019.18 1018.42 1017.45 1016.42 1015.72 1014.65 1014.20 1013.26 1013.08 1012.90 1012.60 1012.74 1013.09 1012.94 1012.61 1011.86 1011.00 1009.66 1008.35 1007.40 1007.17 1006.43 1006.88 1006.70 1006.20 1006.15 1005.61 1005.33 1005.43 1005.74 1005.99
1022.33 1021.70 1021.25 1020.85 1020.85 1020.46 1020.08 1020.51 1021.45 1021.90 1020.72 1020.27 1020.14 1019.65 1019.03 1018.51 1017.38 1016.43 1015.89 1015.24 1014.81 1014.12 1013.70 1013.34 1013.70 1014.14 1014.13 1013.61 1012.90 1012.20 1011.37 1010.02 1009.36 1008.62 1008.53 1007.03 1005.97 1005.85 1006.41 1005.55 1005.48 1005.02 1005.02 1005.41 1005.94
1022.43 1021.72 1021.11 1020.76 1020.83 1021.07 1021.40 1022.14 1022.04 1021.89 1020.85 1020.25 1020.22 1019.78 1019.38 1018.90 1018.04 1017.28 1016.92 1016.05 1015.58 1014.98 1014.85 1014.55 1015.03 1014.63 1014.03 1013.59 1013.14 1012.06 1011.11 1010.12 1009.34 1009.03 1008.93 1008.51 1006.79 1005.50 1005.26 1005.88 1005.63 1005.06 1004.90 1005.29 1005.51
1022.73 1021.98 1021.26 1020.75 1020.98 1021.71 1021.88 1022.37 1022.12 1021.77 1020.86 1021.01 1020.10 1020.23 1019.86 1019.09 1018.36 1018.28 1017.75 1017.51 1016.47 1016.34 1015.91 1015.63 1015.38 1014.59 1013.79 1013.44 1012.83 1011.33 1010.14 1009.52 1009.27 1009.40 1008.87 1008.26 1005.79 1005.23 1005.20 1005.55 1005.99 1005.70 1005.39 1005.26 1005.72
1022.84 1022.34 1021.90 1021.05 1021.86 1022.06 1022.47 1022.29 1021.95 1021.72 1021.64 1022.02 1021.36 1021.13 1020.93 1020.34 1020.22 1018.44 1018.36 1017.65 1017.62 1017.27 1017.20 1016.47 1015.46 1014.70 1014.09 1013.63 1013.34 1011.39 1010.71 1009.11 1009.01 1009.38 1009.26 1008.46 1007.39 1004.57 1005.64 1006.21 1005.92 1005.89 1006.01 1006.05 1006.01
1022.81 1022.44 1022.05 1022.03 1022.12 1022.45 1022.37 1022.17 1021.90 1021.57 1022.88 1023.31 1022.65 1021.73 1021.02 1020.23 1020.23 1019.82 1019.13 1018.41 1018.16 1017.61 1017.14 1016.86 1016.18 1015.30 1015.32 1013.78 1013.28 1012.37 1011.05 1009.71 1009.05 1008.85 1008.59 1008.39 1008.59 1008.00 1008.28 1009.01 1008.55 1007.64 1007.00 1006.80 1006.58
1023.02 1022.68 1022.21 1022.57 1022.85 1022.29 1022.25 1021.66 1021.76 1023.45 1025.62 1024.71 1023.98 1023.30 1022.45 1021.46 1020.51 1020.24 1019.50 1018.86 1019.81 1018.78 1017.73 1016.96 1015.73 1015.38 1015.34 1013.70 1013.25 1012.69 1010.47 1009.45 1009.41 1008.80 1008.31 1008.78 1010.09 1011.38 1012.29 1012.61 1012.25 1011.27 1009.88 1008.85 1007.79
1023.02 1022.88 1022.74 1022.66 1022.69 1022.07 1021.71 1021.66 1023.20 1026.67 1026.85 1026.34 1025.65 1024.53 1023.39 1022.79 1021.99 1021.44 1021.02 1020.36 1020.91 1020.93 1019.74 1018.41 1015.95 1015.72 1016.38 1016.00 1015.51 1013.25 1012.04 1010.74 1009.55 1008.49 1008.78 1010.01 1010.71 1013.48 1014.50 1014.44 1013.88 1012.80 1011.48 1010.38 1009.26
1022.93 1022.82 1022.86 1022.61 1022.35 1021.77 1021.65 1023.62 1026.95 1027.77 1028.16 1027.64 1026.07 1025.26 1024.34 1024.06 1024.17 1022.45 1021.80 1021.78 1022.09 1021.82 1021.56 1020.21 1018.29 1017.51 1016.62 1016.49 1015.65 1014.28 1013.53 1013.49 1011.51 1010.03 1009.74 1011.75 1013.19 1014.39 1015.06 1015.21 1014.88 1014.14 1013.03 1012.13 1010.54
1023.19 1023.32 1023.65 1023.55 1022.98 1022.42 1023.11 1026.13 1028.17 1028.61 1028.74 1028.55 1027.85 1027.61 1026.63 1025.49 1024.93 1023.94 1023.20 1022.78 1022.81 1022.72 1022.40 1021.53 1019.92 1018.12 1017.59 1016.57 1016.29 1016.11 1015.82 1014.52 1012.53 1011.23 1011.27 1013.07 1014.72 1016.19 1016.28 1016.14 1015.83 1015.14 1014.45 1013.40 1012.26
1023.40 1023.55 1024.01 1023.92 1023.25 1023.96 1025.45 1027.48 1028.47 1028.86 1029.19 1029.13 1028.92 1028.74 1028.09 1027.52 1026.66 1025.71 1024.95 1023.92 1023.75 1023.03 1022.33 1021.99 1021.45 1019.07 1018.25 1018.31 1018.22 1017.01 1016.62 1015.98 1015.12 1013.52 1012.66 1013.63 1016.80 1018.16 1018.24 1017.79 1017.20 1016.38 1015.86 1015.01 1014.15
1023.99 1024.20 1024.54 1023.91 1024.36 1026.31 1027.32 1028.45 1028.82 1028.87 1029.22 1029.26 1029.39 1029.32 1029.09 1028.48 1027.71 1026.82 1025.95 1025.05 1024.65 1023.89 1022.80 1022.19 1021.69 1020.01 1019.57 1019.48 1019.30 1019.26 1018.39 1017.26 1015.68 1015.14 1015.11 1015.39 1018.18 1019.24 1019.01 1018.71 1017.99 1017.53 1017.05 1016.25 1015.45
1024.88 1025.36 1024.96 1024.52 1026.13 1027.39 1028.36 1028.69 1028.95 1028.96 1029.05 1029.12 1029.38 1029.61 1029.53 1029.33 1028.81 1027.80 1026.53 1025.47 1025.34 1024.66 1024.13 1023.31 1022.47 1020.67 1019.64 1019.65 1019.32 1019.11 1019.32 1018.57 1017.53 1016.51 1017.02 1016.58 1018.08 1019.15 1019.39 1018.93 1018.80 1018.32 1017.68 1016.79 1016.10
1025.58 1026.03 1026.31 1026.99 1028.46 1028.30 1028.69 1028.88 1028.90 1029.13 1029.25 1029.47 1029.52 1029.65 1029.75 1029.49 1029.27 1028.48 1027.37 1026.15 1025.88 1025.54 1024.73 1024.18 1024.10 1023.44 1022.63 1022.52 1022.26 1021.26 1020.36 1019.64 1018.54 1018.34 1019.22 1020.18 1020.42 1020.32 1020.11 1019.97 1019.64 1018.94 1018.17 1017.35 1016.90
1026.66 1028.05 1028.85 1028.31 1028.44 1028.82 1029.15 1029.10 1029.07 1029.19 1029.51 1029.61 1029.59 1029.82 1030.28 1030.17 1029.42 1028.82 1028.09 1026.99 1026.36 1026.62 1026.06 1025.85 1025.32 1024.63 1023.47 1022.98 1022.62 1022.30 1022.03 1021.43 1020.86 1021.23 1021.03 1021.20 1021.41 1021.83 1021.65 1021.20 1020.74 1019.69 1018.59 1017.98 1017.68
1027.94 1028.70 1029.55 1029.23 1029.26 1028.94 1029.06 1029.06 1029.23 1029.30 1029.68 1029.46 1029.81 1029.79 1030.33 1030.41 1029.84 1029.46 1029.29 1028.76 1028.25 1027.34 1027.52 1027.60 1026.37 1025.42 1023.98 1023.10 1022.63 1022.60 1022.72 1022.67 1022.74 1022.87 1022.55 1022.34 1021.79 1021.94 1021.72 1021.35 1020.09 1019.55 1018.97 1018.52 1018.39
1029.11 1029.47 1029.10 1029.55 1029.19 1029.00 1028.69 1029.00 1029.18 1029.60 1029.15 1029.45 1029.84 1030.14 1030.07 1029.63 1029.47 1029.21 1029.18 1028.94 1028.94 1029.06 1028.59 1028.38 1027.69 1026.06 1024.28 1023.43 1022.72 1022.68 1023.37 1023.66 1023.79 1024.06 1024.06 1023.49 1023.30 1022.99 1022.06 1021.32 1020.89 1020.39 1019.81 1019.52 1019.21
Wind_Speed
19 19 19 18 18 17 17 17 17 16 14 13 12 12 11 11 10 10 7 6 8 16 14 12 7 4 11 6 8 17 14 21 34 29 22 18 18 14 7 17 14 12 11 4 8
19 19 19 18 17 17 17 17 17 16 14 11 10 11 9 6 4 14 17 18 13 14 11 10 11 9 6 12 7 14 18 34 20 23 18 17 19 20 13 17 16 12 6 5 16
19 20 20 19 18 18 18 18 18 16 15 14 11 7 7 3 1 11 24 23 18 13 10 10 7 13 12 16 20 8 31 15 18 17 23 18 17 18 21 26 25 20 20 14 18
19 20 20 18 17 17 17 17 14 11 13 13 9 8 6 10 4 14 21 20 15 12 11 6 4 10 8 15 24 23 23 27 13 12 18 25 17 18 22 19 20 22 21 18 19
20 20 20 17 16 15 15 16 11 15 15 15 12 9 2 8 11 18 17 18 11 14 11 12 9 3 10 8 17 21 21 15 17 18 9 19 28 26 24 20 7 19 16 20 20
21 20 19 15 15 14 13 13 8 8 17 16 14 10 1 5 13 18 13 17 18 16 15 14 10 8 9 8 14 10 14 24 19 16 19 17 25 24 23 19 22 11 19 20 21
22 21 19 15 15 13 11 11 12 9 13 23 14 3 4 11 19 19 13 17 19 20 16 18 13 13 2 7 4 13 23 19 19 22 15 10 23 33 16 17 22 17 14 18 22
23 22 19 14 15 12 10 7 12 8 11 25 14 4 5 18 19 19 15 28 24 21 11 15 11 12 16 9 11 6 8 9 14 23 14 15 19 25 20 15 21 20 19 15 20
23 22 19 14 16 13 10 7 2 16 4 11 22 5 8 23 28 16 20 23 25 10 10 6 11 7 6 13 11 9 8 17 17 19 21 22 3 12 21 18 20 20 18 17 18
22 22 18 14 17 17 8 1 4 5 12 6 13 3 18 24 17 17 25 22 11 13 2 5 7 7 7 9 11 6 6 12 23 13 23 25 12 7 16 22 21 19 17 18 19
21 20 17 9 15 17 5 0 3 2 10 11 11 14 20 23 9 24 27 14 11 7 11 4 4 4 6 8 12 15 13 15 9 10 19 24 25 13 17 12 21 23 21 17 18
21 21 17 6 12 15 5 5 4 4 1 5 8 11 22 21 18 28 30 12 12 13 12 3 6 9 9 10 11 12 15 18 14 4 3 17 22 22 19 18 21 20 23 19 16
21 21 19 7 8 6 9 5 7 4 2 9 6 10 20 19 11 26 30 13 13 15 13 8 9 13 9 10 10 13 13 18 13 5 4 4 15 22 26 19 15 20 20 22 19
17 22 18 5 2 4 3 8 3 3 0 17 16 9 17 21 11 20 24 7 10 10 10 6 16 11 14 6 3 10 11 16 15 4 3 4 8 23 24 22 19 12 17 20 20
14 19 10 14 2 4 8 7 3 4 9 23 10 7 22 15 14 24 24 7 9 12 6 9 18 15 16 8 9 7 15 14 16 12 3 4 5 15 23 22 24 22 16 17 18
15 15 12 3 1 4 8 3 3 2 7 10 12 21 25 19 12 14 21 19 3 7 8 6 9 6 14 15 5 15 7 10 13 7 6 5 4 4 3 7 6 11 19 15 16
11 10 7 2 7 12 4 3 0 11 12 15 13 19 19 21 15 19 23 26 21 13 15 13 16 10 25 11 7 19 6 7 9 7 5 10 6 7 9 10 10 12 14 13 12
8 5 4 8 7 5 2 3 11 2 5 9 12 18 11 20 12 18 14 20 19 17 8 11 12 23 21 8 13 10 7 4 8 9 8 7 4 6 10 12 11 9 9 10 12
4 2 5 12 12 4 1 9 5 3 6 11 13 8 12 17 12 14 18 20 14 20 10 9 7 14 20 6 17 9 5 5 5 4 8 3 5 7 17 17 17 15 13 12 13
2 2 6 15 8 5 6 9 2 3 5 4 10 5 8 17 15 17 18 13 16 20 12 10 6 13 13 11 17 9 8 0 2 4 5 5 6 9 21 20 18 16 15 14 15
3 1 6 11 3 7 6 6 1 2 3 3 4 6 6 8 8 8 11 7 17 20 10 5 3 7 6 18 17 14 6 5 3 5 2 6 4 11 14 14 17 15 12 12 11
2 2 7 7 7 3 4 3 2 2 1 1 2 3 4 7 6 5 7 5 16 18 12 7 4 5 4 3 13 18 11 4 5 5 5 3 5 11 12 11 13 14 12 11 10
3 2 4 5 6 4 1 0 2 3 3 3 2 2 2 4 6 3 6 6 12 15 14 8 5 6 1 2 14 11 21 11 2 1 9 5 5 11 14 15 14 14 13 10 11
1 2 4 5 2 2 2 3 4 2 3 2 3 2 6 3 4 6 7 5 14 12 16 2 4 6 7 3 7 15 22 20 10 7 7 7 8 15 17 17 16 14 13 11 10
5 3 2 3 4 3 1 2 4 5 2 2 3 2 4 4 4 4 5 10 5 12 8 6 8 5 5 6 2 16 16 18 18 11 6 8 6 10 15 15 13 11 12 12 12
2 0 1 2 1 1 0 1 2 3 3 1 3 9 3 5 4 6 2 2 4 11 8 8 5 3 3 6 2 5 16 12 10 10 5 9 6 13 15 12 14 15 13 13 12
2 2 1 2 2 3 1 2 3 1 5 6 5 5 3 7 8 11 10 11 9 8 7 8 7 5 2 9 2 1 9 8 5 5 5 5 7 11 13 12 14 14 12 11 10
Wind_Direction
10 8 6 5 5 5 3 3 360 1 358 354 349 342 346 355 343 32 36 336 311 323 338 326 266 215 265 241 250 218 231 226 227 221 221 215 205 196 215 219 202 190 229 71 145
12 8 5 5 7 7 6 4 360 357 356 351 342 351 358 9 6 38 5 332 337 337 333 345 322 245 246 229 238 223 225 230 227 232 227 205 213 191 201 210 204 193 171 157 161
10 6 5 4 5 6 7 4 1 5 357 343 342 1 358 336 148 6 348 341 335 350 332 315 310 281 231 222 231 231 237 228 228 234 223 228 207 219 214 214 206 200 196 173 170
8 5 3 2 4 7 9 4 5 10 22 33 31 17 3 11 355 343 347 353 341 341 324 328 295 314 260 235 226 247 253 240 259 230 207 220 223 216 221 221 212 210 209 178 176
5 1 0 1 4 10 12 9 33 36 36 28 8 360 359 42 0 332 331 354 354 344 316 303 286 253 271 268 258 241 243 259 254 249 260 221 224 220 224 225 190 215 192 185 184
6 1 359 1 5 8 14 10 5 22 35 7 350 324 92 353 342 340 319 340 342 332 312 285 261 262 268 265 270 269 269 237 243 278 226 242 230 224 221 208 218 191 204 196 189
6 1 359 1 3 4 12 7 3 12 48 12 17 89 74 15 337 332 331 329 327 316 296 272 249 247 193 266 308 326 257 259 254 238 256 255 241 231 208 208 209 205 201 204 203
5 2 0 1 11 12 356 344 33 55 60 31 21 35 56 347 335 355 342 324 322 310 274 265 232 244 239 260 279 279 265 237 216 248 209 241 239 231 212 203 207 207 211 202 206
6 5 2 3 8 8 322 266 349 15 128 27 23 360 19 334 347 342 347 327 317 312 299 245 154 209 207 237 277 193 260 226 239 231 213 210 153 237 205 210 208 211 208 208 204
6 6 5 12 3 8 6 85 40 8 5 146 29 353 351 346 332 326 349 335 333 326 244 183 202 229 218 232 244 305 238 259 226 208 219 221 207 210 222 211 220 218 215 211 209
1 4 6 13 12 15 8 341 270 134 39 58 2 10 341 342 324 357 353 351 356 24 7 28 217 228 342 307 294 292 301 290 284 233 229 226 217 199 226 215 219 218 215 209 209
0 360 4 14 54 18 36 51 39 359 127 29 8 348 352 347 347 4 357 14 358 12 5 97 61 350 308 275 265 259 264 274 277 220 14 229 226 223 223 217 222 216 216 211 206
0 359 2 15 104 45 57 12 312 195 319 23 356 344 353 339 347 0 359 338 0 7 11 42 3 321 315 268 241 242 242 249 232 82 149 273 234 215 219 227 222 233 226 217 214
359 5 1 25 92 3 76 339 284 282 139 12 359 18 353 332 1 357 2 2 16 345 350 29 348 328 333 237 282 252 226 227 216 226 239 267 199 209 211 207 227 220 225 211 217
348 6 22 29 27 24 318 319 250 231 17 338 335 310 339 18 325 355 5 353 355 336 333 2 344 339 356 334 321 264 320 201 184 183 214 236 280 190 208 207 215 226 226 221 221
343 358 5 45 54 4 318 281 223 238 17 334 326 336 348 3 3 354 9 14 360 330 339 326 300 2 345 300 302 323 252 207 174 154 225 187 332 62 169 279 326 252 215 223 217
340 343 21 354 336 324 310 236 11 43 345 338 329 333 332 349 354 2 3 23 26 350 8 328 27 10 6 356 332 347 189 150 183 189 222 147 173 54 3 355 323 312 299 299 252
337 355 12 44 336 327 261 67 63 18 306 319 323 321 350 3 344 352 2 23 27 9 320 350 4 7 10 9 319 309 347 21 163 169 150 184 177 82 7 351 331 334 319 265 263
343 352 13 353 346 348 116 36 41 329 317 317 322 349 352 360 344 355 14 18 13 10 3 341 343 344 10 14 4 344 27 354 297 17 148 72 89 190 2 355 353 359 1 352 329
55 35 21 337 345 39 51 97 145 267 320 321 357 1 326 335 344 359 5 12 359 6 353 359 300 6 7 10 22 31 340 219 326 146 113 95 61 351 345 344 344 352 353 347 344
54 62 359 344 5 44 52 73 223 252 339 321 336 304 300 316 328 329 336 328 7 350 347 333 326 344 340 26 8 8 15 345 279 338 28 140 80 352 341 340 338 346 344 344 341
62 52 353 320 45 34 41 2 326 320 287 302 264 277 285 309 306 312 325 302 358 349 0 359 307 314 36 305 31 29 7 340 323 33 49 15 89 357 351 345 347 344 346 345 338
58 347 357 329 50 40 52 308 278 307 326 347 306 335 286 289 318 276 311 305 359 1 8 329 22 338 121 184 16 19 17 16 281 254 26 360 42 10 357 0 358 347 348 357 358
86 12 48 57 60 71 10 7 327 250 276 303 281 310 320 270 221 299 307 304 345 356 4 31 31 9 57 2 344 10 13 17 32 51 50 35 346 352 359 355 350 350 353 4 7
13 74 32 15 61 92 183 327 334 357 241 242 233 267 310 297 300 266 316 315 330 2 16 47 26 355 300 334 188 36 22 22 40 24 35 337 349 0 344 337 338 345 356 10 12
45 108 82 95 168 256 79 185 310 314 244 278 244 335 180 222 235 294 333 288 333 329 15 2 1 344 262 349 227 28 24 16 28 13 27 332 317 347 327 331 359 359 1 3 5
83 96 237 108 177 267 175 207 238 287 218 242 283 304 228 233 238 269 268 270 276 312 326 357 337 354 9 348 219 222 5 358 353 13 319 346 319 322 328 343 360 353 3 2 359